Weather in Bai

China     41°47′36″N   81°51′51″E
temp.,
°C
wind,
m/s
gust,
m/s
humid.,
%
clouds,
%
prec.,
mm/h
press.,
hPa
HPBL,
m
21 april, wed
wed2123:00+18wnw1222100 0.0 100413
02:00+15nnw332992 0.0 100435
05:00+14nw223155 0.0 100412
08:00+12wnw22375 0.1 100414
11:00+16nnw1125100 0.2 1004417
14:00+19sw0324100 0.3 10021833
17:00+22ssw4720100 0.0 9983114
20:00+21ssw6720100 0.0 9982218
22 april, thu
thu2223:00+16n8737100 0.3 1002375
02:00+15nne483989 0.5 1001232
05:00+13n5928100 0.2 1002221
08:00+12n5927100 0.2 1003256
11:00+16n7718100 0.0 1003830
14:00+18n331699 0.0 10032057
17:00+19n9514100 0.0 10022866
20:00+14nnw131216100 0.0 10061189
23 april, fri
fri2323:00+10nnw131625100 0.1 1011753
02:00+9n10122393 0.4 1012645
05:00+7n7112380 0.0 1014475
08:00+5n592431 0.0 1017317
11:00+9n45160 0.0 1017949
14:00+12sw12110 0.0 10172267
17:00+14nw24101 0.0 10163013
20:00+14nne2312100 0.0 10163450
24 april, sat
sat2423:00+12ene441874 0.0 1019848
02:00+9ne57250 0.0 1020395
05:00+8ene23273 0.0 102059
08:00+7ne112898 0.0 102124
11:00+9ese112916 0.0 1021909
14:00+12ssw34265 0.0 10192230
17:00+15ssw762120 0.0 10162813
20:00+14ssw66220 0.0 10162186
25 april, sun
sun2523:00+13ssw45270 0.0 1016156
02:00+11nw22270 0.0 101624
05:00+9n11264 0.0 101610
08:00+9nne222687 0.0 101710
11:00+13se2222100 0.0 1017556
14:00+16s211860 0.0 10171615
17:00+19sse43154 0.0 10162085
20:00+18sse64165 0.0 10171563